Theta_e
328 332 346 352 351 347 342 343 341 338 336 333 332 335 336 337 338 343 343 342 343 342 340 333 331 318 316 318 320 317 314 317 317 320 325 326 324 327 335 331 334 333 334 331 324 322 327 331 332
335 336 345 350 348 344 340 340 342 340 335 333 334 335 336 339 342 343 342 341 342 342 339 342 328 320 314 311 312 311 310 310 310 311 312 312 311 313 316 317 319 320 317 314 315 319 323 326 329
339 344 349 346 345 345 342 343 342 335 333 333 334 333 331 338 342 341 342 341 342 341 340 339 328 322 313 311 310 311 312 312 312 311 310 311 311 311 312 311 310 309 310 311 314 318 320 324 327
340 344 343 347 344 344 344 343 338 334 333 333 335 334 334 337 340 340 341 341 340 338 339 329 326 316 314 314 315 317 318 318 316 317 318 320 320 318 316 316 318 320 321 319 317 315 315 322 327
338 342 344 346 343 342 343 343 337 336 334 335 334 333 336 340 341 341 341 340 338 338 338 323 317 316 316 317 320 321 325 324 325 332 338 339 337 334 332 332 328 329 329 330 330 330 326 320 327
336 338 345 345 343 342 341 341 337 336 335 336 333 333 337 340 341 341 340 339 337 339 338 333 318 318 319 321 324 330 335 337 338 338 338 337 337 335 333 332 331 331 331 331 330 330 329 328 325
335 341 343 343 344 343 341 339 338 338 336 336 335 335 338 341 340 340 340 338 337 338 337 335 333 321 322 329 333 334 337 336 336 336 336 335 334 333 332 332 331 330 329 329 329 328 327 326 327
331 338 342 342 343 343 340 338 337 338 337 335 335 336 339 340 340 340 341 338 337 336 337 336 336 336 338 336 335 336 335 334 333 329 329 330 331 332 330 329 327 325 324 325 325 325 325 324 323
332 337 342 341 342 341 338 338 334 334 335 335 335 336 336 341 340 341 341 339 336 337 339 337 337 338 340 338 336 335 334 333 328 324 323 326 328 327 326 325 323 321 318 318 316 313 311 310 309
331 336 338 337 338 340 339 337 335 334 335 335 336 335 338 341 340 342 341 339 337 337 338 337 337 338 341 340 338 338 336 334 329 321 319 321 323 323 321 318 311 306 306 307 307 307 307 307 306
326 332 333 335 336 338 338 336 334 335 337 334 334 338 341 342 341 341 341 339 338 337 338 338 338 339 342 340 340 334 335 328 326 319 317 316 310 309 309 306 306 307 307 307 306 306 305 305 305
325 325 327 332 335 337 337 336 335 334 336 334 333 338 342 342 341 340 340 340 338 337 338 339 339 340 341 340 339 336 333 327 324 318 315 311 307 306 306 307 307 307 306 306 306 306 307 307 307
322 322 324 328 331 335 334 335 336 333 334 330 328 337 341 342 341 340 340 340 338 338 338 340 334 340 341 337 337 335 331 327 323 316 313 309 306 307 307 307 307 306 307 306 307 307 307 307 308
319 322 321 324 331 333 332 334 328 332 330 330 332 336 341 341 341 340 340 341 340 338 338 340 333 333 340 337 334 333 329 326 322 315 312 308 307 307 307 307 307 307 307 307 307 307 307 307 307
318 318 321 326 323 332 332 335 332 332 326 331 332 335 339 341 342 341 341 341 340 339 338 339 335 334 338 334 334 333 329 325 320 314 311 308 307 307 307 307 307 307 307 307 307 307 307 307 307
317 321 318 320 327 327 332 336 335 330 328 330 332 334 336 340 342 341 341 341 341 340 338 336 336 336 335 335 334 332 327 324 319 313 310 307 307 307 307 307 307 307 307 307 307 307 307 308 308
316 316 321 319 327 329 332 332 334 329 329 331 332 333 334 336 340 340 340 340 341 341 341 340 335 336 336 335 332 333 326 323 318 312 309 306 307 307 307 307 307 307 307 306 306 306 307 308 309
314 315 317 322 323 331 333 334 331 329 329 333 334 334 334 335 335 338 337 338 337 331 339 339 335 336 336 333 333 332 326 323 316 311 307 306 307 307 307 307 307 306 306 307 308 307 308 309 309
315 314 316 320 323 329 331 332 331 329 328 330 334 335 334 334 332 332 333 330 330 333 334 338 338 335 335 333 332 331 326 321 314 310 306 307 307 307 307 307 306 306 307 308 308 309 309 309 308
316 316 318 321 323 328 328 333 333 330 329 329 329 331 332 333 334 333 333 334 332 332 336 337 337 335 334 332 332 329 325 318 312 309 306 307 307 307 306 306 306 307 308 308 308 309 308 308 308
318 318 317 321 327 329 327 328 332 331 329 329 329 329 328 329 331 333 334 335 336 336 336 336 336 334 333 332 331 327 319 313 310 307 306 306 306 306 307 307 307 308 308 308 308 308 308 308 308
318 318 317 323 328 330 330 326 329 332 332 330 330 330 329 326 326 327 333 335 336 337 336 335 335 334 332 332 329 321 314 311 309 307 306 306 307 307 308 308 308 308 308 308 307 307 307 307 307
319 318 317 321 327 329 330 329 330 330 333 333 330 331 329 328 325 325 326 327 329 333 334 334 335 334 332 330 324 318 311 310 308 308 307 307 308 308 309 308 308 308 308 307 307 307 307 306 306
320 322 323 326 329 332 327 330 328 330 330 330 327 326 324 322 320 321 323 323 323 327 331 334 336 333 330 324 320 315 310 309 308 308 308 308 308 309 309 309 309 308 309 308 308 308 306 305 304
324 322 326 330 329 332 327 330 328 328 322 321 320 320 320 317 316 317 319 322 326 329 331 335 334 330 325 320 317 312 310 309 308 308 308 308 308 308 309 309 308 308 308 307 306 305 304 303 302
321 322 327 336 327 328 323 328 326 321 317 315 314 318 316 315 315 315 316 320 327 331 335 335 330 325 321 317 312 310 309 309 308 307 307 308 308 308 308 308 306 305 303 303 302 302 301 301 300
325 325 322 324 319 327 326 325 322 316 316 315 315 315 314 313 313 313 314 317 319 328 333 329 325 321 316 312 310 310 308 308 307 308 308 307 305 303 302 302 301 301 301 301 300 300 299 298 298
322 322 325 324 328 327 323 321 326 321 319 316 315 315 312 311 311 311 312 313 315 321 323 321 318 314 311 310 309 308 308 309 307 305 304 303 302 302 301 300 300 299 299 299 298 298 297 297 297
322 323 325 325 325 328 325 322 316 317 315 317 316 314 312 311 311 311 311 311 313 313 312 311 310 310 309 309 309 308 306 305 304 303 302 302 301 300 299 299 299 298 298 297 297 297 296 296 296
313 318 324 329 326 320 322 324 313 314 313 316 314 312 311 310 309 309 310 310 310 309 309 309 309 309 309 307 305 305 304 303 302 301 301 300 299 299 299 298 298 297 297 296 296 296 296 296 296
Wind_Speed
3 5 5 2 5 5 9 4 3 6 5 4 8 5 3 5 4 3 10 11 16 17 15 14 12 11 11 10 8 5 7 8 7 6 6 5 5 6 5 4 4 3 4 3 5 8 9 11 12
4 7 4 3 6 8 7 5 8 6 3 9 7 5 5 3 4 9 13 14 18 16 14 13 12 10 9 8 8 8 8 8 7 7 6 5 4 3 4 3 2 2 2 3 5 7 8 9 10
6 7 4 3 8 10 8 2 4 7 11 9 6 0 1 4 5 15 9 19 19 16 16 14 11 10 9 9 10 10 9 8 8 8 8 7 7 6 6 5 5 5 6 6 6 6 7 7 8
5 3 4 6 13 10 11 3 4 12 8 5 4 5 4 2 11 8 17 19 18 16 14 12 12 11 11 11 10 9 8 8 8 8 8 8 8 8 8 7 6 7 7 7 9 8 8 7 7
8 5 7 11 15 13 9 4 7 11 9 10 10 7 6 9 8 15 18 18 17 16 13 13 13 12 12 11 11 10 10 8 8 9 9 10 10 9 9 8 7 7 6 7 8 8 9 8 7
8 5 9 13 15 11 9 8 9 12 9 9 8 13 8 10 15 19 18 17 16 16 14 13 13 13 12 12 13 12 10 10 9 7 7 9 7 3 4 4 4 4 3 3 5 6 7 7 7
12 9 15 16 14 13 12 9 12 16 12 12 8 11 8 14 18 19 18 17 17 15 15 14 13 14 15 14 13 11 10 8 6 7 6 3 2 2 2 1 1 1 1 1 3 4 5 6 5
9 7 16 14 14 16 5 11 6 15 14 6 11 7 9 20 23 21 19 18 17 16 15 14 14 13 13 13 11 10 8 7 6 2 2 1 2 2 1 1 1 1 1 2 2 3 4 4 4
7 8 14 19 16 13 5 11 5 10 8 10 11 2 7 26 26 23 21 19 18 17 17 15 15 15 13 11 10 9 7 5 1 1 2 3 5 5 5 2 1 1 2 2 2 3 3 4 4
13 13 21 15 16 10 7 10 11 10 16 10 12 5 17 28 28 27 25 24 22 21 20 17 17 16 14 12 10 9 7 6 4 2 4 5 6 6 4 2 2 4 5 6 7 7 7 7 7
13 20 15 13 18 12 11 10 10 12 12 21 19 16 24 29 27 26 25 23 24 22 21 19 18 17 16 14 11 11 8 6 3 3 4 5 4 4 4 4 6 8 8 9 9 9 10 10 11
14 20 21 16 13 11 13 8 10 17 12 11 14 18 24 30 30 28 26 24 24 24 22 21 19 18 16 15 13 9 9 6 4 4 4 3 3 5 6 7 8 9 9 9 8 9 10 11 12
18 18 18 19 24 18 13 16 15 17 16 7 7 20 26 28 27 25 24 23 23 23 22 21 22 19 17 16 14 11 9 7 4 4 4 4 5 7 8 9 10 9 8 7 7 8 8 9 10
9 12 24 23 18 19 15 17 8 13 13 10 13 19 24 26 28 26 26 26 25 23 23 22 23 21 16 17 16 13 11 9 5 5 6 5 6 8 9 10 10 8 6 4 4 4 5 8 10
13 18 18 19 28 14 17 21 14 14 10 17 14 16 19 22 24 27 25 25 24 23 23 24 23 20 18 20 19 15 12 9 7 6 7 6 8 9 10 11 9 6 4 1 1 3 6 9 11
11 15 18 19 18 22 15 25 21 14 12 17 18 16 16 19 23 22 22 21 22 22 26 25 25 23 22 19 17 16 12 10 8 7 8 8 9 10 11 10 8 6 3 2 4 5 7 8 9
12 15 18 19 14 16 18 21 19 14 14 14 18 19 21 21 21 23 22 22 21 19 19 22 27 27 23 18 12 13 15 13 10 8 9 10 11 11 11 10 9 7 5 5 7 8 7 7 9
15 17 19 19 18 15 17 18 7 13 16 16 16 20 21 21 23 23 20 21 17 19 26 26 26 28 22 17 16 16 18 15 12 10 10 12 12 12 13 12 10 8 7 8 9 9 11 13 15
16 17 21 18 17 17 22 18 12 14 14 16 17 17 19 21 21 20 19 24 32 27 32 29 29 22 23 21 21 20 19 16 13 12 12 13 13 13 13 12 11 10 10 9 10 12 14 12 17
17 18 19 18 17 17 19 20 17 12 14 17 19 19 20 17 19 21 27 25 34 30 27 27 27 23 23 20 20 18 17 16 14 13 14 14 13 13 14 13 12 12 12 13 14 15 14 14 18
18 18 19 18 12 16 15 19 21 13 14 15 17 17 18 19 19 21 22 26 26 27 27 25 26 22 21 21 19 18 17 14 14 14 14 15 14 13 13 13 14 15 16 17 18 19 19 14 13
18 18 21 16 11 13 15 12 20 18 16 15 19 18 17 16 17 16 20 24 26 26 27 25 24 22 22 20 21 17 13 11 12 12 14 14 13 13 15 16 17 19 21 21 22 22 21 20 14
18 15 16 19 13 17 11 10 10 8 16 17 18 22 20 18 22 21 20 19 21 22 25 26 23 25 21 23 20 17 13 10 9 10 10 13 14 15 17 18 20 21 22 22 21 20 20 17 14
11 10 12 3 3 7 14 12 11 10 11 11 9 16 18 16 14 15 16 17 19 20 22 23 25 24 24 22 20 18 15 12 11 10 10 12 14 16 18 19 20 21 21 21 21 20 19 14 13
8 10 4 5 3 4 3 7 8 4 3 1 1 9 12 10 9 10 13 16 18 18 20 23 26 28 26 23 21 18 16 14 13 12 12 14 16 18 19 18 19 20 20 20 19 19 19 19 18
7 10 2 3 5 6 4 6 3 4 1 0 1 7 8 7 6 7 10 12 15 18 20 25 28 27 24 21 19 17 15 15 15 15 16 16 15 15 15 16 17 18 19 20 20 20 20 19 17
2 2 6 6 3 3 5 5 6 1 2 2 6 8 6 5 6 7 10 11 15 19 22 26 25 22 20 17 15 14 14 15 14 12 11 11 13 14 15 15 16 17 19 20 21 22 18 17 18
3 11 4 6 2 3 4 1 3 3 3 5 7 8 7 7 8 10 11 14 16 18 21 21 19 17 15 14 13 12 11 10 9 8 10 12 13 13 14 15 16 17 18 18 17 18 17 19 20
1 4 6 1 3 4 3 6 6 7 6 6 8 8 9 10 11 13 14 15 18 19 19 18 17 15 14 13 11 9 7 7 9 10 11 11 12 14 15 16 16 16 17 15 16 18 19 20 20
7 6 5 3 2 2 3 3 5 6 4 6 10 10 11 12 13 15 17 19 19 19 18 18 17 15 12 10 8 7 7 8 9 9 10 13 14 15 15 16 17 15 16 17 18 19 19 21 22
Wind_Direction
199 170 167 179 247 240 256 238 274 188 190 158 148 188 226 3 327 11 142 150 155 154 163 164 167 171 180 190 201 190 172 168 170 177 184 190 182 190 173 154 149 105 83 72 39 67 73 66 57
203 166 162 238 251 242 246 229 232 207 132 148 146 168 190 110 90 129 142 153 152 154 156 165 164 167 167 168 165 157 147 144 144 143 147 150 151 129 127 136 129 114 83 62 61 70 71 69 59
185 166 204 232 246 248 263 221 239 156 145 159 144 189 125 119 125 147 158 152 152 156 158 169 168 163 153 148 143 139 134 131 128 125 121 119 115 112 110 108 100 91 86 82 73 65 69 77 78
190 206 221 233 238 242 257 287 184 160 172 189 179 144 118 143 147 156 150 152 152 156 155 167 163 155 150 146 142 137 133 130 125 117 115 114 112 103 102 103 102 91 82 78 74 69 72 83 93
196 227 235 237 245 250 242 257 188 189 181 180 186 147 127 134 144 146 148 152 154 151 153 157 156 152 149 147 141 135 127 123 125 110 121 121 110 107 104 113 104 98 84 75 73 70 69 78 89
200 244 235 234 238 241 254 219 186 202 196 171 185 152 136 156 148 150 151 153 155 154 152 159 155 152 151 146 139 131 121 109 106 122 128 136 128 106 110 125 110 101 79 59 58 64 69 71 72
233 219 239 246 247 246 240 188 198 200 198 188 173 165 142 158 158 154 153 154 155 157 155 155 156 154 150 144 139 132 124 127 127 129 148 158 165 176 165 151 105 88 68 64 64 63 67 69 65
224 251 241 235 243 246 212 195 225 204 204 160 177 183 172 172 161 157 156 156 157 160 158 159 159 157 154 151 141 137 137 135 144 180 216 229 186 183 162 151 150 127 133 113 83 70 59 55 48
208 237 235 228 232 237 184 205 195 184 167 192 196 211 156 166 160 161 160 161 163 164 163 165 160 162 165 157 158 155 153 158 188 130 143 143 132 127 125 169 167 167 135 121 100 81 64 55 48
218 230 236 245 238 246 227 220 177 182 195 202 193 171 153 163 167 169 170 170 171 170 170 167 165 166 162 160 163 159 161 154 165 150 141 141 133 143 149 173 142 123 113 105 95 87 76 64 54
228 243 239 242 242 247 229 205 194 205 207 212 206 180 166 170 174 177 177 177 175 173 174 172 170 167 168 159 163 181 169 181 183 159 151 155 175 183 184 151 135 122 108 98 84 76 71 62 56
251 243 252 239 244 230 224 222 211 215 215 202 218 190 178 178 182 183 182 180 178 179 179 177 176 175 174 174 176 177 175 185 184 173 171 161 173 171 164 155 140 125 112 100 91 77 63 57 53
248 254 248 246 247 243 243 225 226 224 225 210 205 187 191 190 188 187 185 182 181 183 182 182 186 181 182 186 188 183 187 190 197 194 189 177 167 171 167 155 147 137 125 109 85 70 57 46 38
290 283 253 248 248 241 230 235 208 232 216 211 188 195 200 198 192 186 189 186 184 186 187 187 190 189 190 197 208 205 200 200 203 201 200 191 175 175 170 163 158 151 138 116 85 56 35 22 16
278 270 263 244 240 244 231 246 227 236 200 202 200 195 197 203 196 197 191 191 187 189 191 194 194 197 198 208 214 209 213 210 205 205 205 205 185 178 178 175 173 173 165 149 20 358 358 0 358
267 261 249 239 231 225 211 240 224 209 194 208 202 197 194 209 204 199 197 195 193 196 201 202 201 203 207 215 221 209 211 213 211 212 210 206 193 187 187 190 195 200 219 272 308 323 335 341 344
235 253 241 245 216 221 208 240 241 191 200 206 200 196 202 198 200 200 197 196 198 203 212 208 209 207 211 216 221 213 213 215 217 221 216 207 199 196 197 205 214 224 250 281 299 302 306 320 327
258 248 244 253 216 222 219 233 202 202 194 194 193 192 198 196 203 196 196 197 192 245 225 218 212 212 211 214 213 218 207 216 220 223 216 207 204 204 209 217 227 240 259 279 287 289 299 307 314
274 263 263 242 240 215 226 221 201 191 194 189 192 191 196 202 195 200 194 211 230 224 224 227 221 230 214 216 216 205 210 217 222 225 215 209 210 212 218 226 237 245 257 274 290 297 300 305 309
255 254 249 259 226 219 228 223 218 191 201 196 197 199 209 208 198 200 204 209 218 223 225 220 225 226 214 215 212 202 211 215 223 223 216 214 217 221 228 236 243 254 269 281 286 290 290 291 295
248 251 234 245 211 224 237 228 221 217 211 211 210 208 209 212 209 209 208 214 217 220 217 217 222 220 211 212 201 197 207 211 221 218 217 218 224 232 238 245 252 260 269 277 283 284 286 280 280
252 244 238 242 226 212 210 222 210 211 211 213 212 209 204 204 204 202 205 215 216 213 219 221 219 204 203 205 192 201 209 219 224 223 221 227 234 240 245 251 259 264 271 275 277 279 279 278 273
253 255 228 242 240 238 192 232 145 186 217 217 221 221 212 205 217 217 218 217 213 209 216 217 210 195 199 187 190 195 199 200 203 215 225 232 241 247 255 259 263 267 270 273 272 276 275 272 266
262 236 216 237 250 225 202 226 206 190 214 204 211 205 204 197 202 206 212 215 212 211 208 204 194 189 184 184 192 199 207 208 210 217 228 240 249 256 259 261 264 267 271 275 276 274 274 267 267
214 230 203 207 189 208 169 203 240 143 176 211 146 191 186 181 189 193 198 195 198 198 194 188 184 180 180 188 195 204 211 218 225 234 241 253 256 257 260 265 269 272 274 276 277 277 276 277 274
200 216 295 288 187 130 138 206 165 32 91 320 64 153 162 164 171 169 177 180 184 182 180 176 179 179 185 191 200 212 222 232 241 249 252 253 254 261 266 268 271 276 280 279 278 278 278 276 277
116 145 75 325 260 209 156 209 188 177 145 113 141 150 136 128 143 152 160 157 165 170 175 176 178 182 188 197 210 222 230 240 243 240 244 254 262 267 271 277 281 282 280 279 279 281 281 279 279
292 144 120 216 300 118 135 3 19 73 192 145 148 141 119 118 124 131 138 145 152 164 170 170 177 185 193 201 207 209 212 219 230 244 256 263 268 275 284 285 283 282 282 285 285 286 284 282 282
109 179 218 275 308 3 65 82 24 26 16 159 140 124 121 122 124 127 129 135 147 154 157 162 170 176 178 182 189 198 207 227 247 257 265 273 283 287 286 286 286 286 285 285 286 286 285 283 283
282 312 291 288 125 31 360 41 30 14 25 146 134 125 123 124 125 128 133 139 141 146 149 156 159 167 174 180 186 206 231 247 260 270 276 283 284 290 290 288 286 286 289 290 288 286 285 284 283